STARLINK-1284, 45390

Orbit data source: Space-Track

STARLINK-1284, 45390 is a payload satellite owned by SpaceX/Seattle (US) in LEO that was launched on Wed, 18 Mar 2020 UTC via an FALCON 9 launch vehicle from the Air Force Eastern Test Range (AFETR). Payload-class satellites include a variety of spacecraft equipped with specific instruments for various scientific and technological missions. These include communications satellites like Starlink; space stations such as the ISS; scientific satellites like the Hubble; Earth observation satellites from companies like Planet Labs, Umbra, and HawkEye 360; GPS; miniature CubeSats for education and research; and military/defense satellites.

Loading next visibility...
Identifier
45390, 2020-019AG
Orbit
LEO
Country
Flag of USUS
Related business
Manufacturer
SpaceX/Seattle
Mission
Operational Commercial Communications
Bus & Motor
STARLINK, Unknown motor
Mass
260 kg wet, ~248 kg dry
Launch date (UTC)
2020-03-18 (5 years ago)
Launch vehicle
FALCON 9
Launch site
Air Force Eastern Test Range (AFETR)
Object type
Payload
Rocket body
Debris
Shape & HBR
Box + 1 Pan, 4.4 m
Radar Cross Section
13.562 m², Large (>1 m²)

Expand to show TLE details & history
Last TLE update: 6 hours ago

TLE from 6 hours ago
0 STARLINK-1284
1 45390U 20019AG  25258.26529838 -.00000229  00000-0  35539-5 0  9992
2 45390  53.0535 214.1296 0001494  91.9399 268.1761 15.06393636303567
Epoch: 2025-09-15T06:22Z
TLE epoch observation values (Epoch: 2025-09-15T06:22:01.78Z)
Latitude
-0.00001°
Longitude
124.14975°
Altitude
548.143 km
Speed
7.589 km/s
True Right ascension
14h 16m 31s
True Declination
0° 00' 00"
Sunlit
Object was in daylight at epoch
Visualization orbit readout
Latitude
Unknown
Longitude
Unknown
Altitude
Unknown
Speed
Unknown
Apparent Right ascension
Unknown
Apparent Declination
Unknown
Sunlit
N/A
Visualization observer readout
Local Sidereal Time
04:51:56
Azimuth
Unknown
Elevation
Unknown
Doppler factor
Unknown
Orbital elements
Apogee altitude
548.537 km
Perigee altitude
546.467 km
Semi-major axis
6,925.639 km
Eccentricity
0.00015
Inclination
53.0535°
RAAN
214.1296°
Arg. of periapsis
91.9399°
True anomaly
268.15899°
Mean anomaly
268.1761°
Eccentric anomaly
268.16754°
Mean motion
3.76577 °/min
Orbital period
95.6 mins
BSTAR
0.0000035539
Loading maneuver chart data...
Computing Atmospheric mass density...
Loading historical data...
Loading historical data...
Loading historical data...
Loading historical data...
Loading historical data...
Loading historical data...
Loading historical data...

Documentation

Showing up to 5 results
|